Home > Weather > Göttingen > Past weeks

Flag for Germany Weather for the Past 2 Weeks in Göttingen, Lower Saxony, Germany

Now
34 °F

Passing clouds.


Feels Like: 34 °F
Forecast: 38 / 54 °F
Wind: 2 mph from North

Location: Fritzlar Airport

Current Time: Apr 29, 2016 at 4:11:58 AM

Latest Report: Apr 29, 2016 at 2:20 AM


Visibility: N/A

Pressure: 30.01 "Hg

Humidity: 87%

Dew Point: 30 °F

Location of GöttingenLocation

Historic Weather in Göttingen — Graph

°F

Göttingen Temperature Yesterday

Maximum temperature yesterday: 48 °F (at 3:20 PM)
Minimum temperature yesterday: 32 °F (at 11:20 PM)
Average temperature yesterday: 41 °F

High & Low Weather Summary for the Past Weeks

 TemperatureHumidityPressure
High66 °F (Apr 21, 6:20 PM)100% (Apr 14, 7:20 AM)30.45 "Hg (Apr 14, 7:20 AM)
Low28 °F (Apr 24, 3:20 AM)19% (Apr 21, 3:20 PM)29.50 "Hg (Apr 26, 2:20 AM)
Average44 °F70%29.91 "Hg
* Reported Apr 14 2:20 AM — Apr 29 2:20 AM, Göttingen, Weather by CustomWeather, © 2016

Note: Actual official high and low records may vary slightly from our data, if they occured in-between our weather recording intervals... More about our weather records

Advertising

Göttingen Weather History for the Previous 24 Hours

Scroll right to see more
 ConditionsComfort  
Time TempWeatherWind HumidityBarometerVisibility
2:20 AM
Fri, Apr 29
34 °FPassing clouds.2 mph87%30.01 "HgN/A
1:20 AM34 °FPassing clouds.1 mph87%30.01 "HgN/A
12:20 AM36 °FPassing clouds.1 mph81%30.01 "HgN/A
11:20 PM
Thu, Apr 28
32 °FPassing clouds.2 mph93%30.01 "HgN/A
10:20 PM36 °FPassing clouds.1 mph81%30.01 "HgN/A
9:20 PM39 °FPassing clouds.5 mph70%29.98 "HgN/A
8:20 PM41 °FScattered showers. Passing clouds.2 mph76%29.98 "HgN/A
7:20 PM46 °FScattered showers. Scattered clouds.5 mph50%29.98 "HgN/A
6:20 PM48 °FScattered clouds.6 mph50%29.98 "HgN/A
5:20 PM48 °FScattered clouds.9 mph46%29.95 "HgN/A
4:20 PM46 °FScattered showers. Scattered clouds.7 mph53%29.95 "HgN/A
3:20 PM48 °FSprinkles. Scattered clouds.14 mph54%29.95 "HgN/A
2:20 PM46 °FSprinkles. Scattered clouds.8 mph53%29.95 "HgN/A
1:20 PM46 °FScattered showers. Scattered clouds.3 mph66%29.95 "HgN/A
12:20 PM43 °FSnow flurries. Broken clouds.5 mph66%29.95 "HgN/A
11:20 AM39 °FSprinkles. Scattered clouds.12 mph75%29.95 "HgN/A
10:20 AM41 °FScattered clouds.8 mph76%29.95 "HgN/A
9:20 AM41 °FPartly sunny.7 mph76%29.92 "HgN/A
7:20 AM37 °FPartly sunny.5 mph87%29.92 "HgN/A
6:20 AM37 °FLight rain. Partly cloudy.5 mph87%29.89 "HgN/A
5:20 AM36 °FPartly cloudy.1 mph87%29.86 "HgN/A
4:20 AM36 °FPassing clouds.7 mph87%29.86 "HgN/A
Weather by CustomWeather, © 2016

See weather overviewHow to use our weather pages